Find Starlink 32496

NORAD ID: 62051 Int'l Des: 2024-216 Owner: SPXS Country: US Constellation: starlink operational
LEOCIRCULAR

当前视图

正在加载3D地球...

About Starlink 32496

Starlink 32496 (NORAD 62051) is a starlink constellation satellite (v2 mini) launched Nov 21, 2024 by SPXS of US. It operates in LEO, CIRCULAR orbit with a mass of 730.00 kg.

关于 Starlink 32496

正在加载描述...

即将过境

Passes for default location (London). Set your location on the main map for personalized predictions.

高度历史

Loading altitude history...

两行轨道根数

1 62051U 24216V 26173.59512503 .00014471 00000-0 53417-3 0 9998
2 62051 43.0034 31.3042 0001336 279.3522 80.7178 15.27592267 89831
Epoch: Jun 22, 2026 • Age: 25 hours

当前状态

高度 486.6 km
速度 7.63 km/s
星下点 41.81°N, 49.9°W
发射日期 Nov 21, 2024
运行时间 1.5 years
类型 internet

技术详情

分类 Payload
质量 730.00 kg
干质量 700.00 kg
总质量 730.00 kg
长度 0.30 m
直径 4.10 m
跨度 29.00 m
形状 Box + pan
制造商 SPXS
平台类型 Starlink V2M
阶段状态 In Orbit
所有者/国家 SPXS/US

Most Searched